Wind_Speed
61 62 62 60 59 58 57 55 54 51 49 48 46 44 42 40 39 39 39 38 37 35 35 34 33 32 31 30 29 28 28 27 27 27 27 28 28 28 29 30 31 32 33
61 62 62 61 61 59 58 56 55 53 50 48 46 44 43 41 40 39 39 38 37 36 35 34 33 32 31 30 30 29 28 28 28 28 28 29 29 30 30 31 32 33 34
60 61 61 63 62 60 59 57 55 54 52 49 48 47 45 43 41 39 38 37 36 36 35 34 33 32 31 30 29 29 29 28 28 29 29 29 30 31 31 32 33 34 35
59 60 61 62 62 60 59 57 56 54 53 51 50 48 45 42 40 38 38 38 37 37 36 35 34 33 32 31 30 30 29 29 29 29 29 30 31 31 32 33 34 35 36
57 59 60 61 62 61 59 58 57 55 54 52 50 49 46 43 42 41 40 39 38 37 36 36 35 34 33 32 31 30 30 30 30 30 30 31 32 32 32 33 34 36 37
55 58 60 61 62 62 61 59 58 56 54 53 51 49 47 45 43 42 41 39 39 37 36 36 35 34 33 33 32 31 31 31 31 31 32 33 33 33 33 34 35 36 38
55 57 58 59 62 63 62 60 59 58 55 53 51 50 48 46 43 42 41 40 39 38 37 36 36 35 34 34 33 33 32 32 33 33 33 34 34 34 34 35 36 37 38
53 55 57 58 60 62 62 60 60 59 57 54 51 49 48 47 44 43 41 40 39 39 39 38 37 36 35 35 35 34 34 34 34 34 34 35 35 35 35 36 37 38 38
51 53 55 57 59 60 62 61 59 59 58 56 53 51 49 47 45 44 42 41 40 40 40 39 38 37 36 36 36 35 35 34 35 35 35 35 35 35 36 37 38 39 39
49 51 53 56 58 58 60 61 60 58 57 56 54 52 51 48 46 45 43 42 41 41 41 40 39 38 37 37 36 35 35 36 36 36 35 36 35 36 36 37 38 39 40
47 51 53 55 56 58 58 60 60 59 57 56 55 53 52 50 48 47 44 43 42 41 41 41 40 39 38 37 36 36 36 37 36 36 36 36 36 37 37 38 39 40 41
45 48 52 54 56 58 59 59 60 58 56 55 54 53 52 52 49 47 45 44 42 41 41 41 40 39 38 37 36 36 36 37 37 37 36 36 37 37 38 38 39 40 41
43 45 49 52 54 56 57 59 59 58 57 55 54 53 52 52 50 48 46 45 43 42 41 41 40 38 37 36 36 36 36 36 37 36 36 36 37 37 38 39 40 40 42
41 43 46 49 53 55 56 57 58 58 57 56 55 53 53 52 51 49 47 45 44 43 41 40 39 38 37 37 36 36 36 36 36 36 36 37 37 37 38 39 40 41 41
39 42 46 48 50 54 56 57 57 57 57 57 55 54 52 52 52 51 48 46 45 43 41 40 39 38 38 37 36 36 36 36 37 37 37 37 37 37 38 39 39 40 40
37 40 44 48 50 52 55 56 56 56 56 56 54 53 52 52 52 51 49 47 45 45 43 40 40 40 39 38 37 37 36 37 37 36 35 36 37 37 37 38 39 39 40
36 38 42 46 49 50 53 54 55 56 56 55 54 53 52 52 52 51 49 48 46 44 44 43 41 41 39 38 37 37 38 37 37 36 35 35 36 36 37 38 38 39 40
35 37 40 44 47 48 50 52 54 55 55 54 54 54 53 52 51 51 49 48 46 45 45 45 43 42 41 40 40 39 38 37 36 36 35 35 35 36 37 37 38 39 40
34 36 39 43 46 47 49 50 51 53 55 54 54 53 53 53 52 51 50 48 47 46 45 44 44 43 43 42 41 39 37 37 36 35 34 34 35 35 36 37 38 38 39
34 36 38 42 45 46 47 49 50 52 53 54 54 53 53 53 52 51 50 50 48 46 46 45 43 43 42 41 40 39 38 37 36 35 34 34 35 35 36 37 37 38 39
34 35 37 40 43 45 46 48 49 50 51 52 53 53 52 52 52 51 50 49 48 47 46 44 43 43 42 41 40 39 38 36 35 34 34 34 35 35 36 36 37 37 39
33 35 36 38 41 43 45 46 47 49 49 50 51 51 51 51 51 51 50 48 47 47 45 44 43 42 41 40 39 37 36 35 34 33 34 34 34 35 36 35 36 37 38
33 34 35 37 39 41 43 45 46 47 48 48 49 49 49 49 49 49 49 48 47 46 44 42 41 40 39 39 38 36 35 34 33 33 33 33 34 34 33 34 35 37 38
33 34 36 36 37 38 40 43 44 45 46 47 47 48 48 46 46 47 47 46 45 44 42 40 39 38 37 36 35 34 33 32 31 32 32 32 32 32 32 33 35 36 38
32 34 36 37 37 37 39 40 42 43 45 45 46 46 46 46 44 44 44 44 43 41 41 39 38 37 35 33 32 31 30 30 30 30 30 30 30 30 32 33 34 36 37
32 33 35 36 37 37 38 39 40 42 43 44 44 45 45 44 43 43 43 42 41 40 39 38 36 34 32 31 30 29 28 28 28 28 28 28 28 29 30 32 33 35 36
Wind_Direction
216 216 215 214 215 216 216 216 216 216 218 219 220 220 221 223 223 224 225 227 229 230 232 233 235 238 241 244 247 251 255 258 264 269 275 279 283 287 290 293 297 300 304
214 215 214 213 214 214 215 216 216 217 218 219 219 219 220 221 222 223 225 227 228 230 231 232 235 238 242 245 248 252 255 259 264 269 275 279 283 286 289 292 296 299 303
214 213 214 213 213 214 215 215 216 217 218 218 219 219 220 221 222 223 225 226 228 230 231 232 235 239 242 246 249 252 256 260 265 270 275 279 283 286 289 292 295 299 302
215 212 213 213 213 213 215 215 216 217 217 218 219 220 221 222 223 224 225 226 228 230 231 233 236 239 242 246 250 253 258 262 266 271 275 279 282 285 288 292 295 298 302
216 214 214 214 214 213 214 215 214 216 217 217 218 220 220 221 222 223 224 226 228 230 232 234 237 240 243 247 251 254 259 263 267 271 275 279 282 285 287 291 294 298 301
215 215 214 214 214 214 214 213 213 214 217 217 218 219 220 221 222 224 225 227 228 230 232 234 237 240 244 247 251 255 259 263 267 271 275 279 282 284 287 290 293 297 300
216 216 215 214 214 214 214 214 213 214 215 217 217 218 220 221 222 223 225 227 229 231 233 235 238 241 245 248 251 255 260 264 267 271 275 279 281 284 287 290 293 297 299
217 217 217 215 215 216 215 214 215 215 215 217 217 218 219 220 222 223 224 227 229 231 233 235 238 240 244 248 252 256 260 263 266 271 275 278 281 284 287 290 294 296 299
218 217 217 216 215 216 217 216 214 215 216 216 217 218 218 220 222 223 224 226 228 230 233 235 237 240 244 248 252 256 260 263 267 271 275 278 281 284 288 291 294 297 298
219 218 217 217 216 215 216 217 216 215 215 216 217 218 219 220 222 223 225 226 228 230 233 235 238 241 245 249 253 257 261 264 267 270 274 278 281 285 288 291 294 297 299
220 218 218 217 216 215 216 217 217 216 216 216 218 218 219 220 221 223 225 226 228 231 233 236 238 242 246 250 254 258 261 264 267 270 274 278 281 284 288 291 294 297 299
221 220 219 218 217 216 216 216 217 217 217 217 218 219 220 221 222 223 225 227 228 231 233 236 239 242 246 250 254 258 261 264 267 271 274 277 281 284 287 291 294 296 299
222 220 219 218 218 217 216 216 217 217 217 217 218 219 221 221 222 223 226 228 229 231 233 236 239 242 246 250 254 258 261 264 267 270 274 277 281 284 287 290 294 297 299
222 220 219 218 218 218 217 217 217 217 217 217 219 220 221 222 223 224 225 228 229 231 233 236 239 243 246 250 254 258 261 263 266 270 273 276 281 284 287 291 294 297 298
222 221 220 218 217 217 217 218 216 217 217 218 219 221 222 223 224 224 225 227 229 231 234 236 239 243 246 250 255 260 261 264 268 271 274 276 280 284 288 292 294 296 298
221 220 221 221 219 218 218 217 216 216 216 217 218 220 222 223 224 225 225 227 230 232 234 237 239 243 247 251 255 260 262 266 269 272 274 277 281 285 289 292 295 296 299
221 220 219 220 220 219 219 218 218 217 216 216 217 219 222 224 225 227 227 228 230 231 234 237 240 244 247 251 255 259 262 265 269 272 274 278 282 286 289 292 294 296 299
221 220 219 219 218 219 219 219 219 218 218 218 219 220 221 223 225 227 229 230 232 233 236 238 242 245 248 251 254 258 262 265 268 271 275 278 282 286 289 291 294 297 299
222 220 218 218 217 217 218 218 219 219 219 219 220 221 221 223 225 227 228 229 232 236 238 240 243 245 248 251 255 257 261 265 268 271 274 278 281 285 288 291 295 298 300
221 218 217 217 216 217 217 218 218 219 220 220 220 221 222 223 225 227 229 230 232 235 238 241 243 245 247 251 254 256 260 264 268 271 274 277 281 285 289 292 295 298 300
221 218 217 216 215 216 216 217 218 219 220 220 220 221 223 224 224 226 229 230 232 234 237 240 242 244 247 250 253 256 260 264 267 271 274 278 282 286 289 292 295 298 300
221 216 214 214 214 215 215 216 217 218 219 220 221 221 222 223 224 226 228 229 232 234 236 239 241 243 246 248 251 256 260 264 266 270 274 278 282 285 288 292 296 299 302
222 216 214 214 215 216 215 214 216 217 218 219 220 220 221 223 225 227 229 231 232 234 236 239 240 243 245 247 251 256 260 263 265 269 273 278 282 285 289 292 296 299 303
221 218 216 214 215 215 215 214 215 216 217 218 219 219 221 223 226 228 229 231 232 234 237 239 240 242 245 247 251 254 259 261 265 269 274 278 282 286 290 293 296 300 304
218 218 218 216 216 214 214 214 215 216 216 217 218 219 221 224 226 227 228 229 231 232 234 237 239 242 244 245 249 254 258 262 266 270 275 278 282 287 291 293 297 301 304
216 215 215 215 216 215 215 215 216 216 216 216 217 219 221 222 223 225 226 226 228 230 232 235 237 240 243 246 249 253 256 261 266 270 276 280 284 289 292 296 299 302 305
Height
5625 5634 5645 5655 5665 5675 5684 5693 5701 5709 5716 5723 5731 5737 5743 5749 5755 5760 5765 5770 5774 5778 5782 5787 5790 5793 5796 5799 5801 5803 5805 5806 5807 5808 5807 5807 5806 5805 5804 5803 5801 5799 5796
5613 5623 5634 5644 5655 5665 5674 5684 5692 5701 5708 5716 5723 5730 5736 5742 5747 5752 5758 5763 5767 5772 5776 5780 5784 5787 5790 5793 5795 5797 5799 5800 5801 5802 5801 5801 5801 5799 5798 5796 5795 5792 5790
5603 5614 5623 5634 5644 5655 5665 5674 5684 5692 5700 5708 5715 5721 5727 5733 5739 5746 5751 5756 5761 5765 5769 5774 5777 5781 5784 5786 5789 5791 5792 5794 5795 5795 5796 5795 5794 5793 5792 5790 5788 5786 5783
5593 5603 5613 5624 5634 5646 5655 5665 5674 5683 5691 5699 5706 5714 5721 5728 5734 5740 5744 5749 5753 5758 5763 5767 5771 5774 5777 5780 5782 5784 5786 5787 5788 5788 5788 5788 5788 5787 5785 5783 5781 5779 5776
5583 5593 5603 5614 5625 5635 5645 5655 5664 5673 5682 5690 5698 5706 5713 5720 5726 5731 5736 5741 5746 5751 5755 5760 5764 5768 5771 5773 5775 5778 5779 5781 5781 5782 5781 5781 5780 5779 5778 5777 5774 5772 5769
5574 5584 5593 5602 5613 5623 5634 5644 5654 5664 5673 5681 5689 5697 5705 5712 5718 5724 5729 5734 5739 5744 5749 5753 5757 5761 5764 5766 5769 5770 5772 5773 5774 5775 5774 5774 5773 5772 5771 5770 5767 5765 5762
5564 5574 5583 5593 5603 5613 5624 5634 5644 5654 5664 5672 5681 5689 5697 5704 5710 5716 5722 5727 5732 5737 5742 5746 5750 5753 5756 5759 5761 5763 5765 5766 5767 5767 5767 5767 5766 5765 5764 5762 5760 5757 5754
5555 5565 5574 5584 5594 5604 5614 5625 5635 5645 5655 5664 5672 5681 5688 5695 5702 5708 5714 5720 5725 5730 5734 5738 5742 5745 5749 5751 5754 5756 5757 5759 5759 5760 5759 5759 5758 5757 5756 5754 5752 5749 5747
5547 5556 5565 5575 5585 5595 5605 5616 5626 5636 5646 5655 5664 5672 5680 5687 5694 5700 5706 5711 5717 5721 5726 5730 5734 5738 5741 5744 5746 5748 5750 5751 5752 5752 5752 5752 5751 5750 5748 5746 5744 5742 5739
5540 5548 5557 5566 5576 5585 5596 5606 5616 5627 5637 5646 5655 5663 5671 5679 5686 5692 5698 5703 5709 5713 5718 5722 5726 5730 5733 5736 5739 5741 5742 5743 5744 5744 5744 5744 5743 5742 5740 5738 5736 5733 5730
5532 5540 5549 5558 5567 5576 5586 5597 5607 5617 5627 5637 5646 5654 5662 5670 5677 5683 5690 5695 5700 5705 5710 5715 5719 5722 5726 5728 5731 5733 5734 5736 5736 5737 5736 5736 5735 5734 5732 5730 5727 5724 5721
5524 5532 5541 5549 5558 5568 5577 5588 5598 5609 5619 5628 5637 5646 5654 5661 5668 5675 5681 5687 5692 5697 5702 5707 5711 5715 5718 5721 5723 5725 5727 5728 5728 5729 5729 5728 5727 5726 5724 5722 5719 5716 5713
5517 5525 5533 5541 5550 5560 5569 5579 5589 5600 5610 5619 5628 5637 5644 5652 5660 5667 5673 5678 5684 5689 5694 5699 5703 5707 5710 5713 5716 5717 5719 5720 5720 5721 5721 5720 5719 5718 5716 5714 5711 5708 5704
5510 5517 5525 5533 5542 5552 5561 5571 5581 5591 5601 5610 5619 5628 5636 5644 5652 5658 5664 5670 5676 5681 5686 5691 5695 5699 5703 5705 5708 5710 5711 5712 5712 5713 5713 5712 5711 5710 5708 5706 5703 5700 5696
5503 5510 5517 5526 5534 5544 5553 5563 5572 5582 5591 5601 5610 5619 5628 5635 5642 5649 5655 5662 5668 5673 5678 5683 5687 5691 5694 5697 5700 5702 5703 5704 5704 5705 5705 5704 5703 5702 5700 5698 5695 5692 5688
5496 5503 5510 5518 5527 5536 5545 5554 5564 5573 5582 5592 5602 5611 5619 5626 5633 5640 5646 5653 5659 5665 5670 5674 5679 5683 5686 5689 5692 5694 5695 5696 5697 5697 5697 5696 5695 5693 5692 5689 5687 5684 5680
5490 5496 5503 5511 5519 5528 5537 5546 5555 5565 5574 5584 5593 5602 5610 5617 5625 5632 5638 5644 5651 5656 5662 5666 5671 5675 5678 5681 5683 5685 5687 5688 5688 5689 5689 5688 5687 5685 5683 5681 5678 5675 5672
5484 5490 5496 5504 5512 5520 5529 5538 5547 5556 5566 5575 5584 5592 5601 5609 5616 5623 5630 5637 5642 5648 5653 5658 5662 5666 5670 5672 5675 5677 5678 5679 5680 5681 5681 5680 5679 5677 5675 5673 5670 5667 5664
5477 5483 5489 5496 5504 5512 5521 5529 5538 5547 5557 5566 5575 5584 5592 5600 5607 5614 5621 5628 5634 5640 5645 5649 5654 5658 5661 5664 5666 5668 5669 5671 5672 5673 5673 5672 5671 5669 5667 5665 5663 5659 5655
5470 5476 5482 5489 5496 5504 5513 5522 5530 5539 5548 5558 5566 5575 5583 5591 5598 5606 5612 5619 5625 5631 5636 5641 5645 5649 5653 5656 5658 5660 5662 5663 5664 5665 5664 5664 5663 5661 5659 5657 5654 5651 5647
5463 5468 5474 5481 5489 5497 5505 5514 5523 5532 5541 5549 5557 5566 5574 5582 5589 5596 5603 5610 5616 5622 5627 5632 5637 5640 5644 5647 5649 5652 5654 5655 5656 5656 5656 5656 5655 5653 5651 5648 5646 5642 5638
5456 5462 5468 5475 5482 5490 5498 5507 5516 5524 5532 5541 5549 5558 5565 5573 5580 5587 5594 5600 5606 5613 5618 5623 5628 5631 5635 5638 5641 5644 5646 5647 5648 5648 5648 5647 5646 5645 5643 5640 5637 5634 5630
5451 5456 5462 5469 5476 5483 5491 5499 5508 5515 5524 5532 5541 5549 5557 5564 5571 5578 5585 5591 5598 5604 5610 5615 5619 5623 5627 5630 5633 5635 5637 5639 5640 5640 5640 5639 5638 5637 5635 5632 5629 5625 5621
5445 5451 5457 5463 5470 5476 5484 5492 5500 5508 5516 5524 5532 5540 5548 5556 5563 5570 5576 5583 5590 5596 5602 5607 5611 5615 5619 5622 5625 5627 5629 5631 5632 5632 5632 5631 5630 5629 5626 5624 5621 5617 5613
5440 5445 5451 5458 5464 5471 5478 5485 5493 5500 5508 5516 5524 5532 5540 5547 5554 5561 5568 5575 5582 5588 5594 5599 5603 5607 5611 5614 5617 5620 5622 5623 5624 5624 5624 5624 5622 5621 5619 5616 5613 5609 5605
5434 5440 5446 5452 5459 5466 5473 5479 5486 5494 5501 5509 5517 5524 5532 5539 5546 5553 5560 5566 5574 5580 5585 5590 5595 5600 5604 5607 5610 5612 5614 5615 5617 5617 5617 5616 5615 5613 5611 5608 5605 5601 5597